[[{"header":{"parameterUnit":"m.s-1","parameterCategory":2,"la1":30.2991,"la2":30.254,"lo1":-89.0895,"lo2":-89.0444,"dy":0.0017,"dx":0.0017,"nx":28,"ny":28,"refTime":"2024-12-03T09:00:00:Z","depth":"0","parameterNumber":2,"parameterNumberName":"U-component_of_CURRENTS"},"data":[0,0,0,0,0,0,0,0,0,0,0,0,0,0,0,0,0,0,0,0,0,0,0,0,0,0,0,0,0,0,0,0,0,0,0,0,0,0,0,0,0,0,0,0,0,0,0,0,0,0,0,0,0,0,0,0,0,0,0.3111,0.3112,0,0.3166,0.3167,0.3167,0.3163,0.3162,0.3161,0.3161,0.317,0.3171,0.3171,0,0,0,0,0,0,0,0,0,0,0,0,0,0.3004,0.3006,0.3111,0.3112,0.3113,0.3166,0.3167,0.3167,0.3163,0.3162,0.3161,0.3161,0.317,0.317,0.3171,0,0,0,0,0,0,0,0,0,0,0,0,0,0.3051,0.3006,0.311,0.3119,0.3121,0.3166,0.3167,0.3167,0.3163,0.3162,0.3161,0.316,0.3169,0.317,0.3172,0.3195,0,0,0.3175,0.3175,0,0,0,0,0,0,0,0,0.3048,0.3055,0.3117,0.3119,0.312,0.3159,0.3133,0.3175,0.3163,0.3144,0.3161,0.316,0.3165,0.3166,0.3175,0.3196,0.3196,0.3175,0.3176,0.3176,0.3177,0,0,0,0,0,0,0,0.3045,0.3052,0.313,0.3118,0.312,0.3122,0.3127,0.3141,0.3155,0.3145,0.3146,0.3157,0.3165,0.3174,0.3175,0.3196,0.3175,0.3176,0.3177,0.3177,0.3264,0.3265,0,0,0,0,0,0,0.3046,0.3049,0.3128,0.3132,0.3085,0.3124,0.313,0.3145,0.3156,0.3158,0.3158,0.3157,0.3172,0.3174,0.3175,0.3223,0.3176,0.3177,0.3178,0.3262,0.3264,0.3266,0,0,0,0,0,0,0.3043,0.3052,0.3126,0.3094,0.3103,0.3127,0.3144,0.3147,0.3159,0.3166,0.3167,0.3167,0.3172,0.3173,0.3199,0.3222,0.3178,0.3179,0.326,0.3263,0.3265,0.3305,0,0,0,0,0,0,0.304,0.3051,0.3061,0.3094,0.3105,0.316,0.3145,0.3149,0.3168,0.3167,0.3175,0.3175,0.3171,0.3197,0.32,0.3223,0.318,0.3258,0.3261,0.3264,0.3302,0.3309,0.3315,0,0,0,0,0,0.3036,0.3052,0.3061,0.3071,0.3119,0.3162,0.3168,0.3179,0.317,0.3184,0.319,0.3174,0.3218,0.32,0.3202,0.3226,0.3257,0.3261,0.3264,0.3299,0.3307,0.3314,0,0,0,0,0,0,0.3003,0.3054,0.3065,0.3093,0.313,0.3162,0.3179,0.3185,0.3202,0.3199,0.3195,0.3196,0.323,0.3226,0.3205,0.3262,0.3236,0.324,0.3261,0.3269,0.3276,0.3276,0.3181,0,0,0,0,0,0.3005,0.3032,0.3079,0.3101,0.3124,0.3152,0.317,0.3182,0.3204,0.321,0.3216,0.3227,0.3249,0.3255,0.3274,0.3301,0.3316,0.332,0.3326,0.3332,0.3336,0.3387,0.3398,0.3278,0.3278,0.3278,0,0,0.2994,0.3029,0.3041,0.3096,0.3125,0.3161,0.316,0.3196,0.3221,0.3209,0.3239,0.3252,0.3264,0.3299,0.3313,0.3295,0.3376,0.3336,0.3341,0.3342,0.3392,0.3403,0.3414,0.328,0.328,0.3279,0,0,0.2992,0.3026,0.305,0.3087,0.3141,0.3168,0.3181,0.3224,0.324,0.3276,0.3278,0.3307,0.333,0.3349,0.336,0.3414,0.3413,0.3419,0.3445,0.3494,0.3504,0.3513,0.3552,0.3565,0.3415,0.3416,0.3416,0,0.2975,0.3018,0.3061,0.3098,0.313,0.3173,0.3205,0.3237,0.3278,0.3301,0.329,0.3351,0.3357,0.3407,0.3424,0.3428,0.3452,0.3411,0.3502,0.3511,0.352,0.3558,0.3571,0.3418,0.3418,0.3417,0.3417,0,0.2995,0.3032,0.3053,0.3116,0.3154,0.3194,0.3249,0.3288,0.3311,0.334,0.3397,0.3415,0.3449,0.346,0.3455,0.3522,0.352,0.3508,0.3479,0.3534,0.3571,0.3584,0.3421,0.3421,0.342,0.3419,0,0,0.2948,0.3047,0.3052,0.309,0.317,0.3205,0.3263,0.3332,0.3374,0.3413,0.3468,0.3504,0.3517,0.3531,0.3538,0.3574,0.3653,0.3565,0.3567,0.3598,0.3763,0.3716,0.3725,0.3659,0.3661,0.3663,0.3767,0,0.295,0.3015,0.3067,0.3129,0.3172,0.3239,0.329,0.3355,0.3409,0.3476,0.3515,0.3568,0.3544,0.3569,0.3604,0.3652,0.3688,0.3626,0.371,0.3713,0.366,0.3739,0.3629,0.3708,0.3779,0.3781,0.3783,0,0.295,0.3,0.3056,0.3154,0.3179,0.3218,0.3319,0.3374,0.3477,0.3522,0.3583,0.362,0.3693,0.366,0.3759,0.3723,0.3745,0.3769,0.3774,0.3723,0.3689,0.3665,0.3729,0.3662,0.3802,0.38,0.3799,0,0.2897,0.2993,0.3038,0.307,0.3181,0.3219,0.3279,0.3378,0.3434,0.3557,0.3609,0.3697,0.3748,0.3801,0.3843,0.3816,0.3947,0.3917,0.3893,0.389,0.3808,0.3794,0.381,0.3982,0.3982,0.3982,0.3981,0,0.288,0.2917,0.3018,0.3042,0.3093,0.3189,0.325,0.333,0.345,0.3509,0.3621,0.3682,0.3787,0.3865,0.3889,0.3938,0.3987,0.3919,0.3922,0.3819,0.3805,0.375,0.3711,0.3985,0.3985,0.3984,0.3983,0,0.2806,0.2879,0.2927,0.3035,0.3064,0.3095,0.3208,0.3264,0.3393,0.348,0.3525,0.37,0.381,0.3898,0.4004,0.3993,0.3948,0.4041,0.391,0.3895,0.3787,0.3754,0.3641,0.3519,0.4044,0.4043,0.4043,0,0.277,0.2793,0.288,0.2897,0.294,0.3003,0.3048,0.3199,0.3265,0.3465,0.3506,0.3674,0.3762,0.393,0.3978,0.4048,0.3922,0.3954,0.3874,0.3785,0.3752,0.3604,0.3498,0.3791,0.3789,0.3787,0.3785,0,0.2691,0.2721,0.2759,0.2791,0.2831,0.287,0.2956,0.3004,0.3181,0.3278,0.342,0.3525,0.3729,0.3786,0.3902,0.3919,0.3781,0.3914,0.3865,0.3596,0.3393,0.3276,0.3717,0.3768,0.377,0.3771,0.3772,0.3773,0.2608,0.2603,0.2649,0.2671,0.2709,0.2725,0.2719,0.2837,0.2921,0.3049,0.324,0.3357,0.3571,0.3743,0.3742,0.3713,0.366,0.3623,0.3607,0.3476,0.3297,0.3694,0.3715,0.3717,0.3718,0.3719,0.372,0,0.2494,0.2511,0.253,0.2547,0.2536,0.2594,0.2646,0.2632,0.2673,0.2854,0.2969,0.3183,0.33,0.3451,0.3553,0.3448,0.3277,0.3352,0.3133,0.3053,0.3468,0.3396,0.3296,0.3296,0.3296,0.3296,0.3296,0.3296,0.2436,0.2416,0.2432,0.2373,0.2377,0.2316,0.2306,0.2316,0.2409,0.2513,0.2642,0.2812,0.3173,0.3405,0.3377,0.3284,0.3017,0.2892,0.2849,0.3187,0.321,0.3233,0.3157,0.3009,0.3008,0.2312,0.2307,0.2304]},{"header":{"parameterUnit":"m.s-1","parameterCategory":2,"la1":30.2991,"la2":30.254,"lo1":-89.0895,"lo2":-89.0444,"dy":0.0017,"dx":0.0017,"nx":28,"ny":28,"refTime":"2024-12-03T09:00:00:Z","depth":"0","parameterNumber":3,"parameterNumberName":"V-component_of_CURRENTS"},"data":[0,0,0,0,0,0,0,0,0,0,0,0,0,0,0,0,0,0,0,0,0,0,0,0,0,0,0,0,0,0,0,0,0,0,0,0,0,0,0,0,0,0,0,0,0,0,0,0,0,0,0,0,0,0,0,0,0,0,-0.0191,-0.0191,0,-0.027,-0.0271,-0.0273,-0.0326,-0.0326,-0.0326,-0.0326,-0.046,-0.0464,-0.0467,0,0,0,0,0,0,0,0,0,0,0,0,0,-0.0142,-0.0142,-0.0191,-0.0191,-0.0192,-0.027,-0.0272,-0.0273,-0.0326,-0.0326,-0.0326,-0.0326,-0.0459,-0.0463,-0.0467,0,0,0,0,0,0,0,0,0,0,0,0,0,-0.0188,-0.0142,-0.0191,-0.0227,-0.0231,-0.027,-0.0272,-0.0273,-0.0326,-0.0326,-0.0326,-0.0326,-0.0458,-0.0463,-0.0468,-0.0494,0,0,-0.0483,-0.0486,0,0,0,0,0,0,0,0,-0.0185,-0.019,-0.0221,-0.0224,-0.0229,-0.0287,-0.0303,-0.0349,-0.0325,-0.0291,-0.0326,-0.0327,-0.0406,-0.0415,-0.0432,-0.05,-0.0506,-0.0484,-0.0487,-0.0489,-0.0491,0,0,0,0,0,0,0,-0.0182,-0.0187,-0.0224,-0.0221,-0.0226,-0.0259,-0.0265,-0.0313,-0.0349,-0.0294,-0.0298,-0.0304,-0.0409,-0.0426,-0.0435,-0.0508,-0.0484,-0.0488,-0.0491,-0.0493,-0.06,-0.0599,0,0,0,0,0,0,-0.0165,-0.0184,-0.0222,-0.0226,-0.0205,-0.0259,-0.0266,-0.0269,-0.0347,-0.0358,-0.0303,-0.0306,-0.0418,-0.0429,-0.044,-0.0459,-0.0489,-0.0494,-0.0497,-0.06,-0.06,-0.0599,0,0,0,0,0,0,-0.0164,-0.0167,-0.0218,-0.0206,-0.0214,-0.0259,-0.0262,-0.0271,-0.0286,-0.0353,-0.0366,-0.0309,-0.0418,-0.0433,-0.0474,-0.0465,-0.0496,-0.0501,-0.06,-0.06,-0.0599,-0.0507,0,0,0,0,0,0,-0.0162,-0.0166,-0.0163,-0.0204,-0.0214,-0.023,-0.0262,-0.0272,-0.0288,-0.0292,-0.0362,-0.0375,-0.042,-0.0466,-0.0479,-0.0473,-0.0505,-0.06,-0.06,-0.06,-0.051,-0.0503,-0.0497,0,0,0,0,0,-0.016,-0.0148,-0.0162,-0.0167,-0.0208,-0.0229,-0.0237,-0.0272,-0.0287,-0.0288,-0.0335,-0.0372,-0.0473,-0.047,-0.0485,-0.048,-0.0601,-0.06,-0.06,-0.0513,-0.0505,-0.0498,0,0,0,0,0,0,-0.0123,-0.0154,-0.017,-0.0168,-0.0192,-0.0237,-0.024,-0.0265,-0.0303,-0.0307,-0.0372,-0.0388,-0.0421,-0.0464,-0.0459,-0.051,-0.0542,-0.0545,-0.0471,-0.0464,-0.0458,-0.0432,-0.0509,0,0,0,0,0,-0.0112,-0.0113,-0.0149,-0.0146,-0.0155,-0.0197,-0.021,-0.0233,-0.0271,-0.0287,-0.0335,-0.0388,-0.0431,-0.0456,-0.0503,-0.0532,-0.056,-0.0539,-0.0532,-0.0526,-0.0517,-0.0555,-0.0551,-0.0598,-0.0598,-0.0598,0,0,-0.0097,-0.0114,-0.0115,-0.0139,-0.0161,-0.0163,-0.0206,-0.0218,-0.0221,-0.0297,-0.0317,-0.0368,-0.0434,-0.0464,-0.0482,-0.0498,-0.0524,-0.0526,-0.052,-0.0514,-0.0554,-0.055,-0.0545,-0.0597,-0.0597,-0.0597,0,0,-0.006,-0.0081,-0.0067,-0.0083,-0.0108,-0.0134,-0.0132,-0.0173,-0.0193,-0.0221,-0.0273,-0.0313,-0.0384,-0.0423,-0.0453,-0.0441,-0.0489,-0.0461,-0.0409,-0.0446,-0.0442,-0.0439,-0.0448,-0.0446,-0.0457,-0.0457,-0.0457,0,-0.0038,-0.0029,-0.0066,-0.0057,-0.006,-0.0114,-0.0097,-0.0126,-0.0175,-0.0186,-0.0214,-0.0305,-0.0362,-0.0393,-0.0391,-0.0425,-0.0447,-0.043,-0.0436,-0.0434,-0.0432,-0.0442,-0.0442,-0.0452,-0.0453,-0.0453,-0.0454,0,0.0007,0.0014,0.0022,0.0016,0.0006,0.0011,-0.0028,-0.0042,-0.0075,-0.0108,-0.0146,-0.0222,-0.0272,-0.03,-0.0346,-0.0362,-0.038,-0.0421,-0.0449,-0.0422,-0.0434,-0.0435,-0.0446,-0.0448,-0.0449,-0.045,0,0,0.0061,0.0056,0.006,0.0074,0.0047,0.0049,0.0044,0.0026,0.0037,-0.0031,-0.0027,-0.0116,-0.0157,-0.0195,-0.0257,-0.0295,-0.0303,-0.0348,-0.0352,-0.0343,-0.0363,-0.0365,-0.0366,-0.0348,-0.0349,-0.0349,-0.0368,0,0.0111,0.0151,0.0129,0.0168,0.0188,0.0144,0.0152,0.0127,0.0092,0.0081,-0.0005,-0.0032,-0.0118,-0.0134,-0.0187,-0.0271,-0.0306,-0.0292,-0.0403,-0.0405,-0.04,-0.0368,-0.0355,-0.0371,-0.0369,-0.0369,-0.037,0,0.0167,0.0186,0.0235,0.0256,0.0262,0.0276,0.0286,0.0282,0.0242,0.0212,0.0161,0.0097,0.0035,-0.0044,-0.0168,-0.0156,-0.0249,-0.0322,-0.0325,-0.036,-0.0409,-0.0405,-0.0374,-0.0553,-0.0372,-0.0372,-0.0372,0,0.0236,0.0263,0.0309,0.0314,0.0326,0.0346,0.0347,0.0327,0.035,0.0298,0.0313,0.0209,0.0186,0.0044,-0.0104,-0.0137,-0.0233,-0.0299,-0.0386,-0.0387,-0.0414,-0.0416,-0.056,-0.0389,-0.0389,-0.0389,-0.0389,0,0.03,0.0339,0.0349,0.0378,0.0443,0.0419,0.0482,0.0462,0.0471,0.0516,0.039,0.0418,0.0206,0.0125,-0.0047,-0.0198,-0.019,-0.0361,-0.0392,-0.0379,-0.0378,-0.0568,-0.0686,-0.039,-0.0389,-0.0389,-0.0389,0,0.0371,0.0375,0.0436,0.0465,0.0481,0.0526,0.0583,0.0633,0.0613,0.0672,0.0667,0.0594,0.0485,0.028,0.0077,-0.0091,-0.0364,-0.0323,-0.0275,-0.0301,-0.0564,-0.0676,-0.0862,-0.0935,-0.0421,-0.0421,-0.0421,0,0.0411,0.0451,0.0508,0.0558,0.0577,0.0638,0.0695,0.07,0.0766,0.0793,0.0847,0.077,0.0741,0.0455,0.0141,-0.0139,-0.0344,-0.0324,-0.0402,-0.0562,-0.071,-0.0801,-0.0855,-0.0393,-0.0393,-0.0393,-0.0393,0,0.0495,0.0515,0.0564,0.0663,0.0734,0.0812,0.0894,0.0975,0.0997,0.1057,0.1136,0.1122,0.0851,0.0596,0.0201,-0.0025,-0.0456,-0.0331,-0.0523,-0.0715,-0.0799,-0.0887,-0.0382,-0.0392,-0.0392,-0.0392,-0.0392,-0.0392,0.0562,0.0613,0.0683,0.0778,0.086,0.0977,0.1065,0.117,0.1294,0.1395,0.1372,0.138,0.0984,0.0459,0.0141,-0.0433,-0.0458,-0.0618,-0.074,-0.0814,-0.0897,-0.037,-0.0406,-0.0406,-0.0406,-0.0406,-0.0406,0,0.0644,0.07,0.0796,0.0908,0.1012,0.1038,0.1195,0.1295,0.1458,0.1555,0.162,0.1444,0.0951,0.0416,-0.0338,-0.0753,-0.0927,-0.0995,-0.1138,-0.1174,-0.0721,-0.0732,-0.0809,-0.0809,-0.0809,-0.0809,-0.0808,-0.0808,0.0693,0.0794,0.0838,0.1016,0.1099,0.1244,0.1339,0.149,0.1599,0.1724,0.1743,0.1732,0.1334,-0.0012,-0.0937,-0.1168,-0.1473,-0.1548,-0.1687,-0.1405,-0.138,-0.1356,-0.1394,-0.1608,-0.1609,-0.2075,-0.208,-0.2084]}],[{"header":{"parameterUnit":"m.s-1","parameterCategory":2,"la1":30.2991,"la2":30.254,"lo1":-89.0895,"lo2":-89.0444,"dy":0.0017,"dx":0.0017,"nx":28,"ny":28,"refTime":"2024-12-03T09:00:00:Z","depth":"2","parameterNumber":2,"parameterNumberName":"U-component_of_CURRENTS"},"data":[0,0,0,0,0,0,0,0,0,0,0,0,0,0,0,0,0,0,0,0,0,0,0,0,0,0,0,0,0,0,0,0,0,0,0,0,0,0,0,0,0,0,0,0,0,0,0,0,0,0,0,0,0,0,0,0,0,0,0.2716,0.2717,0,0.2749,0.2749,0.275,0.2762,0.2761,0.2761,0.2761,0.2803,0.2805,0.2806,0,0,0,0,0,0,0,0,0,0,0,0,0,0.2635,0.2636,0.2716,0.2717,0.2717,0.2749,0.2749,0.275,0.2762,0.2761,0.2761,0.2761,0.2803,0.2804,0.2806,0,0,0,0,0,0,0,0,0,0,0,0,0,0.2669,0.2637,0.2716,0.2727,0.2729,0.2749,0.2749,0.275,0.2762,0.2761,0.2761,0.2761,0.2803,0.2804,0.2806,0.2818,0,0,0.2811,0.2812,0,0,0,0,0,0,0,0,0.2667,0.2671,0.2725,0.2727,0.2728,0.2752,0.2736,0.2773,0.2762,0.2748,0.2761,0.2761,0.2787,0.279,0.2796,0.282,0.2822,0.2812,0.2813,0.2813,0.2814,0,0,0,0,0,0,0,0.2664,0.267,0.2728,0.2726,0.2728,0.2721,0.2726,0.2743,0.2768,0.275,0.2751,0.2755,0.2788,0.2794,0.2797,0.2823,0.2811,0.2813,0.2814,0.2815,0.2936,0.2938,0,0,0,0,0,0,0.2664,0.2668,0.2727,0.273,0.2697,0.2723,0.2728,0.2744,0.2767,0.2771,0.2755,0.2756,0.2791,0.2795,0.2798,0.2868,0.2813,0.2815,0.2816,0.2934,0.2937,0.2939,0,0,0,0,0,0,0.2662,0.2669,0.2726,0.2699,0.2706,0.2724,0.2742,0.2744,0.2761,0.2772,0.2775,0.2771,0.2791,0.2796,0.283,0.2868,0.2816,0.2817,0.2931,0.2935,0.2938,0.2973,0,0,0,0,0,0,0.266,0.2668,0.2683,0.27,0.2708,0.276,0.2742,0.2745,0.2764,0.2765,0.2786,0.2789,0.2791,0.2828,0.2832,0.2869,0.2819,0.2929,0.2933,0.2937,0.2969,0.2977,0.2984,0,0,0,0,0,0.2657,0.2669,0.2684,0.2691,0.2727,0.2761,0.2766,0.2776,0.2765,0.2788,0.2795,0.2789,0.2857,0.283,0.2835,0.2874,0.2927,0.2932,0.2937,0.2966,0.2976,0.2984,0,0,0,0,0,0,0.2634,0.2672,0.2688,0.2711,0.2747,0.2764,0.2774,0.2784,0.2806,0.2808,0.2806,0.2811,0.2859,0.2864,0.2834,0.2925,0.2896,0.2902,0.2917,0.2926,0.2933,0.2927,0.282,0,0,0,0,0,0.2639,0.2667,0.2703,0.2726,0.2739,0.276,0.2774,0.2794,0.2812,0.2822,0.2836,0.2857,0.2882,0.29,0.2925,0.2966,0.2972,0.3,0.3008,0.3014,0.3014,0.3048,0.3057,0.2955,0.2955,0.2955,0,0,0.2636,0.2662,0.2677,0.2725,0.2743,0.277,0.2768,0.2804,0.2831,0.2824,0.2859,0.2882,0.2899,0.2949,0.2972,0.2957,0.3052,0.302,0.3025,0.3022,0.3054,0.3063,0.3072,0.2958,0.2958,0.2957,0,0,0.2638,0.2668,0.2689,0.2722,0.2768,0.2787,0.2801,0.2839,0.2861,0.2903,0.2908,0.2949,0.2983,0.3011,0.3023,0.3088,0.3087,0.3109,0.3141,0.3173,0.3181,0.3188,0.3223,0.3233,0.3114,0.3114,0.3114,0,0.2633,0.2669,0.2701,0.2729,0.2753,0.2793,0.2822,0.2851,0.2902,0.2927,0.2922,0.2996,0.301,0.3068,0.3094,0.3103,0.3122,0.3099,0.318,0.3187,0.3194,0.3228,0.3238,0.3117,0.3116,0.3116,0.3116,0,0.2649,0.2684,0.2696,0.2747,0.278,0.2818,0.2863,0.2912,0.2937,0.2964,0.3035,0.3063,0.3109,0.313,0.3125,0.3197,0.3196,0.3181,0.3149,0.3206,0.3239,0.3249,0.312,0.3119,0.3118,0.3118,0,0,0.2618,0.2694,0.27,0.2732,0.2798,0.2828,0.2885,0.2949,0.2989,0.3045,0.3098,0.3148,0.3175,0.3193,0.3216,0.3244,0.3309,0.3236,0.3237,0.3257,0.3391,0.3356,0.3363,0.3307,0.3308,0.331,0.3399,0,0.2622,0.2674,0.2716,0.277,0.2797,0.2864,0.2909,0.2977,0.3031,0.3098,0.3148,0.3204,0.3196,0.3235,0.3265,0.3303,0.3335,0.3286,0.3345,0.3347,0.3297,0.3373,0.312,0.3176,0.3409,0.341,0.3412,0,0.2618,0.2659,0.2705,0.2791,0.2808,0.2848,0.2943,0.3,0.31,0.3146,0.322,0.3256,0.3336,0.3309,0.3394,0.3367,0.3384,0.3398,0.3401,0.3359,0.3331,0.3157,0.3185,0.3428,0.3427,0.3425,0.3424,0,0.2569,0.2652,0.2688,0.2715,0.2809,0.2854,0.2918,0.3013,0.3068,0.3194,0.3244,0.333,0.3388,0.3426,0.3467,0.344,0.3546,0.3509,0.3493,0.3491,0.3282,0.3258,0.3557,0.3557,0.3557,0.3557,0.3557,0,0.2549,0.2583,0.2672,0.2693,0.2746,0.2832,0.2898,0.2988,0.3102,0.3161,0.3269,0.3332,0.3417,0.3484,0.3503,0.3543,0.358,0.3516,0.3517,0.3291,0.3268,0.3482,0.3472,0.356,0.3559,0.3559,0.3558,0,0.2486,0.2544,0.2589,0.2689,0.2719,0.2763,0.2879,0.2932,0.306,0.3152,0.3199,0.3351,0.3451,0.3525,0.3604,0.3588,0.3629,0.3627,0.3365,0.3333,0.3542,0.3533,0.3621,0.3621,0.362,0.362,0.362,0,0.2457,0.2471,0.2561,0.2584,0.263,0.2702,0.2749,0.2893,0.2957,0.3145,0.3189,0.3338,0.3416,0.3552,0.357,0.3622,0.365,0.3393,0.3289,0.3559,0.3552,0.3543,0.3535,0.3031,0.3026,0.3022,0.3018,0,0.2395,0.2424,0.2461,0.2508,0.2556,0.26,0.2695,0.2731,0.2897,0.2986,0.3116,0.3204,0.3368,0.3325,0.3416,0.34,0.3368,0.3313,0.3665,0.3061,0.3011,0.3001,0.3011,0.2982,0.2985,0.2988,0.299,0.2991,0.2338,0.2343,0.2387,0.2421,0.2469,0.2492,0.2491,0.2595,0.2669,0.2779,0.2943,0.2998,0.309,0.3111,0.3056,0.3022,0.324,0.3082,0.309,0.3104,0.3027,0.298,0.2931,0.2934,0.2937,0.2939,0.2941,0,0.2254,0.2274,0.2301,0.233,0.2329,0.2393,0.244,0.2418,0.245,0.2588,0.2681,0.2547,0.2567,0.2647,0.2562,0.2603,0.2532,0.2481,0.2352,0.2394,0.243,0.2312,0.2029,0.2026,0.2022,0.2019,0,0,0.2214,0.2198,0.221,0.2173,0.2194,0.2153,0.2145,0.2143,0.2201,0.2202,0.2226,0.2441,0.2579,0.2253,0.225,0.2115,0.2218,0.2037,0.2782,0.2672,0.2702,0.2809,0.2681,0,0,0,0,0]},{"header":{"parameterUnit":"m.s-1","parameterCategory":2,"la1":30.2991,"la2":30.254,"lo1":-89.0895,"lo2":-89.0444,"dy":0.0017,"dx":0.0017,"nx":28,"ny":28,"refTime":"2024-12-03T09:00:00:Z","depth":"2","parameterNumber":3,"parameterNumberName":"V-component_of_CURRENTS"},"data":[0,0,0,0,0,0,0,0,0,0,0,0,0,0,0,0,0,0,0,0,0,0,0,0,0,0,0,0,0,0,0,0,0,0,0,0,0,0,0,0,0,0,0,0,0,0,0,0,0,0,0,0,0,0,0,0,0,0,-0.0,-0.0001,0,-0.0063,-0.0063,-0.0064,-0.0117,-0.0117,-0.0117,-0.0118,-0.0209,-0.0211,-0.0213,0,0,0,0,0,0,0,0,0,0,0,0,0,0.0024,0.0024,-0.0,-0.0001,-0.0001,-0.0062,-0.0063,-0.0065,-0.0116,-0.0117,-0.0117,-0.0118,-0.0208,-0.0211,-0.0213,0,0,0,0,0,0,0,0,0,0,0,0,0,-0.0009,0.0024,-0.0,-0.0033,-0.0036,-0.0062,-0.0064,-0.0065,-0.0116,-0.0117,-0.0117,-0.0118,-0.0208,-0.0211,-0.0214,-0.0223,0,0,-0.0223,-0.0225,0,0,0,0,0,0,0,0,-0.0007,-0.001,-0.0028,-0.0031,-0.0034,-0.008,-0.0088,-0.0118,-0.0116,-0.0088,-0.0118,-0.0118,-0.0167,-0.0173,-0.0187,-0.0227,-0.0231,-0.0224,-0.0226,-0.0227,-0.0228,0,0,0,0,0,0,0,-0.0005,-0.0008,-0.0027,-0.0028,-0.0032,-0.0061,-0.0066,-0.0095,-0.0126,-0.0091,-0.0094,-0.0097,-0.0169,-0.0184,-0.0189,-0.0233,-0.0224,-0.0226,-0.0228,-0.023,-0.0301,-0.0301,0,0,0,0,0,0,0.0011,-0.0005,-0.0025,-0.0029,-0.0019,-0.0061,-0.0067,-0.0067,-0.0126,-0.0134,-0.0097,-0.0099,-0.0178,-0.0186,-0.0193,-0.0202,-0.0227,-0.023,-0.0232,-0.0301,-0.0301,-0.0301,0,0,0,0,0,0,0.0012,0.001,-0.0023,-0.0017,-0.0023,-0.006,-0.006,-0.0068,-0.0082,-0.0129,-0.0139,-0.0102,-0.0179,-0.0188,-0.0211,-0.0206,-0.0231,-0.0234,-0.0301,-0.0301,-0.0301,-0.0223,0,0,0,0,0,0,0.0013,0.0011,0.0014,-0.0016,-0.0023,-0.0031,-0.006,-0.0069,-0.0081,-0.0086,-0.0137,-0.0146,-0.018,-0.0206,-0.0215,-0.0211,-0.0237,-0.0301,-0.0301,-0.0301,-0.0226,-0.0221,-0.0216,0,0,0,0,0,0.0014,0.0031,0.0015,0.0012,-0.0016,-0.003,-0.0036,-0.0067,-0.0081,-0.0082,-0.0115,-0.0145,-0.0213,-0.0208,-0.0218,-0.0215,-0.0301,-0.0301,-0.0301,-0.0228,-0.0222,-0.0216,0,0,0,0,0,0,0.0045,0.0026,0.0008,0.0018,-0.0004,-0.0038,-0.0038,-0.006,-0.0088,-0.0092,-0.0139,-0.015,-0.017,-0.0204,-0.0198,-0.0238,-0.0264,-0.0266,-0.0205,-0.02,-0.0195,-0.0172,-0.0239,0,0,0,0,0,0.0054,0.0058,0.0031,0.0037,0.0031,-0.0004,-0.0014,-0.0035,-0.0062,-0.0075,-0.011,-0.0149,-0.0178,-0.0196,-0.0228,-0.0246,-0.0277,-0.0254,-0.0249,-0.0244,-0.0233,-0.0274,-0.0271,-0.0301,-0.0301,-0.0301,0,0,0.0067,0.0057,0.0058,0.0043,0.0025,0.0028,-0.0011,-0.002,-0.0019,-0.008,-0.009,-0.0131,-0.0178,-0.0198,-0.0211,-0.0225,-0.0253,-0.0244,-0.024,-0.0231,-0.0274,-0.0271,-0.0268,-0.0301,-0.0301,-0.0301,0,0,0.0102,0.0088,0.0103,0.0092,0.0072,0.0053,0.0055,0.0022,0.0006,-0.0011,-0.0053,-0.0085,-0.0134,-0.0164,-0.0186,-0.0174,-0.0223,-0.0193,-0.0151,-0.0191,-0.0188,-0.0186,-0.0219,-0.022,-0.0193,-0.0193,-0.0193,0,0.0117,0.0133,0.0105,0.0118,0.0119,0.0071,0.009,0.0068,0.003,0.0023,-0.0004,-0.0072,-0.0114,-0.0133,-0.0134,-0.016,-0.0192,-0.0165,-0.0182,-0.0181,-0.0181,-0.0215,-0.0217,-0.0189,-0.019,-0.019,-0.0191,0,0.0162,0.0173,0.0185,0.0186,0.0182,0.019,0.0162,0.015,0.0122,0.0094,0.0065,0.0003,-0.0038,-0.0061,-0.0094,-0.0112,-0.0138,-0.0167,-0.0191,-0.0172,-0.021,-0.0214,-0.0184,-0.0185,-0.0187,-0.0188,0,0,0.0203,0.0215,0.0218,0.0235,0.0221,0.0226,0.0229,0.022,0.0229,0.017,0.0172,0.0107,0.0063,0.0035,-0.0019,-0.0058,-0.0084,-0.0107,-0.0111,-0.0127,-0.0169,-0.0185,-0.0192,-0.0119,-0.012,-0.012,-0.0195,0,0.0247,0.0292,0.0283,0.0326,0.035,0.0317,0.033,0.0311,0.0283,0.0269,0.0195,0.0172,0.0102,0.0082,0.0032,-0.0051,-0.0093,-0.0061,-0.0195,-0.0199,-0.0205,-0.0196,-0.0171,-0.0236,-0.02,-0.0201,-0.0201,0,0.0298,0.0323,0.0373,0.0407,0.0415,0.0428,0.0442,0.0445,0.0409,0.0383,0.0334,0.0277,0.0215,0.015,0.0018,0.004,-0.0055,-0.0127,-0.0132,-0.0175,-0.0222,-0.0251,-0.0246,-0.0209,-0.0209,-0.0208,-0.0207,0,0.035,0.0391,0.0436,0.0445,0.0468,0.0484,0.0492,0.0477,0.0499,0.0452,0.0456,0.0361,0.0324,0.0194,0.0043,0.0028,-0.0104,-0.0145,-0.0249,-0.0251,-0.0269,-0.0272,-0.0238,-0.0238,-0.0238,-0.0238,-0.0238,0,0.0407,0.0444,0.0463,0.0488,0.0549,0.0539,0.0591,0.058,0.0584,0.0619,0.0516,0.0521,0.0332,0.0235,0.0079,-0.009,-0.0081,-0.0234,-0.027,-0.0242,-0.0241,-0.0251,-0.0252,-0.0241,-0.024,-0.024,-0.0239,0,0.0454,0.0466,0.0525,0.0559,0.0575,0.0615,0.0668,0.0707,0.0691,0.0732,0.0726,0.0645,0.0517,0.0327,0.0122,-0.0029,-0.0198,-0.0263,-0.0213,-0.0241,-0.033,-0.0326,-0.0386,-0.0387,-0.0388,-0.0388,-0.0389,0,0.0481,0.0516,0.0577,0.0619,0.0636,0.0691,0.0738,0.0754,0.0806,0.0815,0.085,0.0749,0.0694,0.0391,0.0113,-0.0155,-0.0195,-0.0316,-0.0343,-0.0315,-0.0344,-0.0338,-0.0333,-0.034,-0.034,-0.034,-0.034,0,0.0537,0.0554,0.0599,0.0686,0.0745,0.0821,0.0889,0.095,0.0975,0.1013,0.1046,0.1008,0.0729,0.0474,0.0105,-0.0086,-0.0272,-0.0328,-0.0313,-0.0301,-0.0276,-0.0304,-0.0299,-0.0342,-0.0342,-0.0341,-0.0341,-0.0341,0.0574,0.0616,0.0676,0.076,0.0835,0.0934,0.1005,0.1088,0.1181,0.1243,0.1202,0.1148,0.0854,0.0396,0.0069,-0.0282,-0.0271,-0.0398,-0.0395,-0.0393,-0.0369,-0.0347,-0.0421,-0.0421,-0.0421,-0.0422,-0.0422,0,0.062,0.0668,0.0749,0.0847,0.0935,0.097,0.1098,0.1172,0.1287,0.1344,0.1368,0.1092,0.0804,0.0458,-0.005,-0.0356,-0.0389,-0.0462,-0.0424,-0.042,-0.0417,-0.0393,-0.0453,-0.0453,-0.0454,-0.0455,0,0,0.0646,0.0723,0.0761,0.0907,0.0985,0.1106,0.1183,0.1294,0.1366,0.1419,0.1398,0.1341,0.0924,0.0559,0.0142,-0.015,-0.0223,-0.0223,-0.0166,-0.0069,-0.0062,-0.0349,-0.0304,0,0,0,0,0]}],[{"header":{"parameterUnit":"m.s-1","parameterCategory":2,"la1":30.2991,"la2":30.254,"lo1":-89.0895,"lo2":-89.0444,"dy":0.0017,"dx":0.0017,"nx":28,"ny":28,"refTime":"2024-12-03T09:00:00:Z","depth":"4","parameterNumber":2,"parameterNumberName":"U-component_of_CURRENTS"},"data":[0,0,0,0,0,0,0,0,0,0,0,0,0,0,0,0,0,0,0,0,0,0,0,0,0,0,0,0,0,0,0,0,0,0,0,0,0,0,0,0,0,0,0,0,0,0,0,0,0,0,0,0,0,0,0,0,0,0,0.169,0.1691,0,0.176,0.176,0.1761,0.1825,0.1826,0.1827,0.1828,0.1891,0.1892,0.1892,0,0,0,0,0,0,0,0,0,0,0,0,0,0.1605,0.1606,0.169,0.1691,0.1692,0.1759,0.176,0.1761,0.1825,0.1826,0.1827,0.1828,0.1891,0.1891,0.1892,0,0,0,0,0,0,0,0,0,0,0,0,0,0.1653,0.1607,0.1689,0.1734,0.1738,0.1759,0.176,0.1761,0.1824,0.1826,0.1827,0.1829,0.189,0.1891,0.1892,0.1869,0,0,0.1896,0.1896,0,0,0,0,0,0,0,0,0.165,0.1656,0.1726,0.1731,0.1736,0.1787,0.1754,0.1798,0.1824,0.1789,0.1828,0.183,0.1856,0.186,0.1867,0.1872,0.1875,0.1896,0.1897,0.1897,0.1897,0,0,0,0,0,0,0,0.1647,0.1653,0.1715,0.1727,0.1733,0.1748,0.1756,0.1762,0.1811,0.1792,0.1798,0.1809,0.1859,0.1865,0.1868,0.1876,0.1896,0.1897,0.1898,0.1898,0.2001,0.2003,0,0,0,0,0,0,0.1642,0.165,0.1713,0.1717,0.1699,0.1748,0.1757,0.1767,0.1812,0.1821,0.1808,0.1812,0.1863,0.1867,0.1871,0.1956,0.1897,0.1898,0.1899,0.1999,0.2001,0.2003,0,0,0,0,0,0,0.1639,0.1646,0.171,0.1687,0.1697,0.1749,0.1759,0.1768,0.1815,0.1824,0.1832,0.1851,0.1864,0.1869,0.1921,0.1954,0.1899,0.19,0.1996,0.1999,0.2002,0.2054,0,0,0,0,0,0,0.1637,0.1645,0.1667,0.1687,0.1698,0.1747,0.1758,0.1768,0.1818,0.1825,0.1862,0.1868,0.1866,0.1919,0.1922,0.1955,0.1901,0.1994,0.1998,0.2001,0.205,0.2059,0.2066,0,0,0,0,0,0.1633,0.1652,0.1668,0.1677,0.1721,0.1748,0.1755,0.1795,0.1819,0.1843,0.1879,0.1869,0.1946,0.1922,0.1924,0.1958,0.1992,0.1997,0.2001,0.2046,0.2057,0.2066,0,0,0,0,0,0,0.1628,0.1661,0.1679,0.1708,0.1738,0.176,0.1792,0.1815,0.1861,0.1882,0.1889,0.1897,0.1954,0.1953,0.1926,0.2002,0.1969,0.1974,0.2003,0.2013,0.2021,0.2026,0.1902,0,0,0,0,0,0.1635,0.1662,0.169,0.1718,0.1737,0.1771,0.1795,0.1821,0.1856,0.188,0.1905,0.1938,0.1966,0.1989,0.2008,0.2046,0.2052,0.2073,0.2081,0.2088,0.2096,0.2134,0.2146,0.2019,0.2018,0.2018,0,0,0.164,0.1665,0.1681,0.1721,0.175,0.1779,0.179,0.1837,0.1872,0.1876,0.1943,0.1966,0.1984,0.2031,0.2056,0.204,0.2131,0.2094,0.2099,0.2104,0.214,0.2152,0.2163,0.2022,0.2021,0.2021,0,0,0.1653,0.1689,0.1713,0.1741,0.1792,0.1811,0.1833,0.1876,0.1913,0.1968,0.1985,0.2036,0.2076,0.2098,0.2111,0.2177,0.2171,0.2188,0.2235,0.2272,0.2283,0.2292,0.2326,0.2338,0.2195,0.2195,0.2195,0,0.1663,0.1695,0.1725,0.1755,0.1786,0.183,0.1861,0.1898,0.1956,0.1989,0.2003,0.209,0.2106,0.2163,0.2194,0.2194,0.2215,0.2192,0.2282,0.2291,0.2299,0.2332,0.2344,0.2198,0.2198,0.2197,0.2197,0,0.1681,0.1723,0.1743,0.1794,0.1828,0.1868,0.1914,0.1964,0.2015,0.2049,0.2131,0.2163,0.2216,0.2232,0.2236,0.2308,0.2305,0.2283,0.2251,0.2315,0.2346,0.2357,0.2202,0.2201,0.22,0.22,0,0,0.1658,0.174,0.1751,0.1785,0.1857,0.1881,0.195,0.2013,0.2069,0.2134,0.2204,0.2265,0.2295,0.2315,0.2331,0.237,0.2451,0.2363,0.2364,0.2388,0.2543,0.2397,0.2396,0.2448,0.245,0.2452,0.2543,0,0.1668,0.1725,0.1767,0.1831,0.1864,0.1929,0.1987,0.2054,0.2119,0.2197,0.2254,0.2327,0.2322,0.2368,0.2406,0.2443,0.2484,0.2429,0.2485,0.2487,0.2342,0.2405,0.2459,0.2551,0.2554,0.2556,0.2557,0,0.1664,0.1708,0.1769,0.1857,0.1879,0.193,0.2033,0.2091,0.2201,0.2257,0.2338,0.2386,0.2474,0.2455,0.2552,0.2521,0.2544,0.2561,0.2565,0.2416,0.2362,0.2474,0.2578,0.2577,0.2575,0.2574,0.2572,0,0.1617,0.1706,0.1759,0.1788,0.1892,0.1946,0.2011,0.2116,0.2178,0.2308,0.2372,0.2466,0.2538,0.2582,0.2633,0.2607,0.2726,0.2684,0.2572,0.2562,0.2642,0.2631,0.2746,0.2746,0.2746,0.2745,0.2745,0,0.1591,0.1637,0.175,0.1777,0.1851,0.1934,0.2025,0.2105,0.2228,0.23,0.2407,0.2474,0.2577,0.2651,0.2671,0.2663,0.2758,0.2592,0.2577,0.2664,0.2654,0.2651,0.2639,0.2749,0.2748,0.2747,0.2747,0,0.1524,0.16,0.1665,0.1787,0.1831,0.1886,0.2027,0.2085,0.2218,0.232,0.2372,0.2515,0.2606,0.2686,0.2771,0.2699,0.2712,0.2685,0.2798,0.2785,0.2515,0.2505,0.2556,0.2552,0.2548,0.2545,0.2542,0,0.149,0.152,0.1655,0.1698,0.1761,0.1859,0.1923,0.2065,0.2127,0.2319,0.2355,0.2505,0.258,0.2585,0.2676,0.2706,0.2673,0.2659,0.2558,0.2516,0.2497,0.2493,0.2488,0.2536,0.2535,0.2534,0.2533,0,0.1423,0.1489,0.1544,0.1634,0.1711,0.1778,0.1884,0.1913,0.2075,0.2217,0.2283,0.2335,0.2435,0.249,0.2541,0.2553,0.2652,0.2619,0.2625,0.253,0.2493,0.2477,0.2476,0.2521,0.2522,0.2524,0.2524,0,0.1378,0.1399,0.1484,0.1548,0.164,0.1673,0.1736,0.181,0.1886,0.2092,0.2111,0.2268,0.2408,0.2413,0.246,0.2465,0.2415,0.2319,0.234,0.2355,0.2247,0.2168,0.2092,0,0,0,0,0,0.1321,0.1334,0.1389,0.1451,0.1536,0.1586,0.1702,0.1767,0.1922,0.1916,0.2006,0.2087,0.2153,0.2237,0.2201,0.2377,0.2429,0.2325,0.2329,0.2449,0.2464,0.2354,0,0,0,0,0,0,0.1283,0.1332,0.135,0.1357,0.138,0.1454,0.1518,0.1618,0.1623,0.1788,0.1836,0.1965,0.2063,0.2155,0.2163,0.2189,0.2149,0.2428,0.2422,0.2441,0.2454,0.2466,0.2358,0,0,0,0,0]},{"header":{"parameterUnit":"m.s-1","parameterCategory":2,"la1":30.2991,"la2":30.254,"lo1":-89.0895,"lo2":-89.0444,"dy":0.0017,"dx":0.0017,"nx":28,"ny":28,"refTime":"2024-12-03T09:00:00:Z","depth":"4","parameterNumber":3,"parameterNumberName":"V-component_of_CURRENTS"},"data":[0,0,0,0,0,0,0,0,0,0,0,0,0,0,0,0,0,0,0,0,0,0,0,0,0,0,0,0,0,0,0,0,0,0,0,0,0,0,0,0,0,0,0,0,0,0,0,0,0,0,0,0,0,0,0,0,0,0,0.0086,0.0086,0,0.0045,0.0045,0.0044,0.0013,0.0012,0.0012,0.0012,-0.0035,-0.0036,-0.0037,0,0,0,0,0,0,0,0,0,0,0,0,0,0.0096,0.0097,0.0087,0.0086,0.0086,0.0045,0.0045,0.0044,0.0013,0.0012,0.0012,0.0012,-0.0035,-0.0036,-0.0037,0,0,0,0,0,0,0,0,0,0,0,0,0,0.0077,0.0097,0.0087,0.0065,0.0063,0.0046,0.0045,0.0044,0.0013,0.0012,0.0012,0.0011,-0.0034,-0.0036,-0.0037,-0.0039,0,0,-0.0042,-0.0042,0,0,0,0,0,0,0,0,0.0078,0.0077,0.0069,0.0067,0.0064,0.0034,0.0031,0.0016,0.0013,0.0031,0.0012,0.0011,-0.0012,-0.0015,-0.0023,-0.0041,-0.0043,-0.0042,-0.0043,-0.0043,-0.0044,0,0,0,0,0,0,0,0.008,0.0078,0.007,0.0068,0.0066,0.0044,0.0041,0.0028,0.0012,0.003,0.0027,0.0024,-0.0013,-0.0021,-0.0024,-0.0044,-0.0042,-0.0043,-0.0044,-0.0045,-0.0071,-0.0071,0,0,0,0,0,0,0.0088,0.008,0.0071,0.0068,0.0071,0.0044,0.0041,0.0044,0.0012,0.0007,0.0024,0.0022,-0.0018,-0.0022,-0.0026,-0.0022,-0.0043,-0.0045,-0.0046,-0.0072,-0.0071,-0.0071,0,0,0,0,0,0,0.0089,0.0088,0.0073,0.0073,0.0069,0.0045,0.0048,0.0043,0.0037,0.0008,0.0003,0.0023,-0.0019,-0.0024,-0.0033,-0.0024,-0.0046,-0.0047,-0.0072,-0.0072,-0.0071,-0.0019,0,0,0,0,0,0,0.009,0.0089,0.0094,0.0074,0.007,0.007,0.0048,0.0043,0.0035,0.0032,0.0005,0.0,-0.002,-0.0031,-0.0035,-0.0027,-0.0048,-0.0072,-0.0072,-0.0071,-0.0021,-0.0017,-0.0014,0,0,0,0,0,0.009,0.0103,0.0094,0.0093,0.0078,0.0071,0.0067,0.0047,0.0036,0.0038,0.0018,0.0001,-0.0031,-0.0031,-0.0036,-0.0029,-0.0072,-0.0072,-0.0071,-0.0023,-0.0018,-0.0014,0,0,0,0,0,0,0.0111,0.0101,0.0091,0.01,0.0088,0.0066,0.0067,0.0052,0.0038,0.0035,0.0006,0.0,-0.0006,-0.0025,-0.0024,-0.0036,-0.0056,-0.0056,-0.0017,-0.0013,-0.0009,0.0003,-0.0049,0,0,0,0,0,0.0118,0.0125,0.0109,0.0116,0.0113,0.009,0.0084,0.0072,0.0056,0.0049,0.0029,0.0007,-0.0008,-0.0015,-0.0032,-0.0036,-0.0066,-0.0036,-0.0032,-0.0029,-0.0023,-0.0062,-0.0061,-0.007,-0.007,-0.007,0,0,0.0128,0.0123,0.0127,0.012,0.0109,0.0114,0.0086,0.0084,0.0088,0.0047,0.0046,0.0021,-0.0006,-0.0012,-0.0016,-0.0025,-0.0043,-0.0028,-0.0025,-0.0021,-0.0062,-0.0061,-0.006,-0.0069,-0.0069,-0.007,0,0,0.0154,0.0148,0.0162,0.0157,0.0146,0.0135,0.0137,0.0118,0.0109,0.0104,0.0075,0.0056,0.0034,0.0015,0.0003,0.0017,-0.0022,0.0011,0.0041,0.0002,0.0003,0.0003,-0.0038,-0.0042,0.0013,0.0013,0.0013,0,0.0165,0.0181,0.0164,0.0175,0.0179,0.0148,0.0166,0.0154,0.0133,0.013,0.0112,0.0072,0.0047,0.0039,0.0042,0.0027,-0.0004,0.0028,0.0008,0.0007,0.0006,-0.0036,-0.0041,0.0015,0.0015,0.0015,0.0015,0,0.0199,0.0212,0.0221,0.0227,0.0228,0.0238,0.0223,0.022,0.0203,0.0185,0.017,0.013,0.0106,0.0093,0.0072,0.0057,0.0034,0.0017,-0.0001,0.001,-0.0035,-0.0041,0.0019,0.0018,0.0017,0.0017,0,0,0.0225,0.0242,0.0246,0.0262,0.0258,0.0266,0.0275,0.0274,0.0281,0.0246,0.0247,0.0209,0.0178,0.0162,0.0127,0.0092,0.0054,0.0056,0.0053,0.002,-0.0036,-0.0044,-0.0052,0.0032,0.0031,0.0031,-0.0066,0,0.0257,0.0294,0.0293,0.0332,0.0351,0.0336,0.035,0.0343,0.0325,0.0316,0.0266,0.0252,0.0207,0.0196,0.0153,0.0082,0.004,0.0082,-0.0046,-0.005,-0.0055,-0.0058,0.0029,-0.0071,-0.0073,-0.0074,-0.0075,0,0.029,0.0313,0.0357,0.0391,0.0399,0.0416,0.0433,0.0441,0.0418,0.0401,0.0368,0.0327,0.0277,0.0234,0.0114,0.0142,0.006,-0.0003,-0.0009,-0.0037,-0.0069,-0.0086,-0.0087,-0.0086,-0.0085,-0.0084,-0.0083,0,0.0319,0.0359,0.0399,0.0409,0.0438,0.0458,0.0472,0.0466,0.0483,0.0453,0.0451,0.038,0.0346,0.0239,0.0112,0.011,-0.0029,-0.0049,-0.0136,-0.0138,-0.0125,-0.0124,-0.0137,-0.0137,-0.0137,-0.0137,-0.0136,0,0.0351,0.0384,0.0417,0.0439,0.0492,0.0497,0.0541,0.0541,0.0546,0.0565,0.0498,0.0487,0.0345,0.0252,0.0128,-0.0022,-0.0021,-0.0131,-0.0162,-0.0101,-0.0096,-0.013,-0.0127,-0.014,-0.014,-0.0139,-0.0138,0,0.037,0.0392,0.0443,0.0487,0.0507,0.0542,0.0596,0.0624,0.0619,0.0641,0.0637,0.0562,0.0439,0.029,0.0111,0.0006,-0.0139,-0.0194,-0.0117,-0.0142,-0.0228,-0.0222,-0.03,-0.0301,-0.0302,-0.0302,-0.0303,0,0.0381,0.0409,0.0477,0.0513,0.0535,0.0589,0.063,0.0656,0.0687,0.0685,0.0698,0.0601,0.0527,0.0276,0.0108,-0.0129,-0.0166,-0.0247,-0.024,-0.0222,-0.0245,-0.0237,-0.023,-0.0304,-0.0305,-0.0305,-0.0305,0,0.0401,0.0426,0.0466,0.054,0.0595,0.0658,0.0717,0.0748,0.0775,0.0777,0.0746,0.0623,0.0481,0.0284,0.0099,-0.0072,-0.0196,-0.0258,-0.0257,-0.025,-0.0229,-0.0249,-0.0241,-0.0308,-0.0308,-0.0308,-0.0307,0,0.0413,0.0442,0.0496,0.0561,0.0635,0.0702,0.0735,0.0773,0.0805,0.0808,0.0793,0.0645,0.0563,0.0312,0.0142,-0.0026,-0.0073,-0.0136,-0.0142,-0.0141,-0.0067,-0.0015,-0.0055,0,0,0,0,0,0.0418,0.0451,0.0513,0.0586,0.0661,0.0705,0.0782,0.0809,0.084,0.083,0.0817,0.0688,0.0443,0.0339,0.017,0.0107,-0.0115,-0.01,-0.0193,-0.0326,-0.0322,-0.0263,0,0,0,0,0,0,0.042,0.0475,0.0506,0.0593,0.0646,0.0731,0.0783,0.0809,0.0804,0.0811,0.069,0.0634,0.04,0.0542,0.0164,0.0113,0.0026,-0.0209,-0.0213,-0.0328,-0.0324,-0.0321,-0.026,0,0,0,0,0]}]]